Погода в Ларневске

Россия / Брянская область     53°08′55″N   31°30′53″E
темп.,
°C
ветер,
м/с
пор.,
м/с
влажн.,
%
обл.,
%
осадки,
мм/ч
давл.,
гПа
погр.,
м
24 сентября, пт
пт2400:00+5ю4898100 0.0 1008405
03:00+5ю61296100 0.0 1004502
06:00+6ююв91796100 2.3 999715
09:00+7ю91796100 7.6 995678
12:00+9ююз61296100 4.6 994804
15:00+11зюз577466 5.3 995992
18:00+7юз3596100 3.1 997216
21:00+7юз2496100 4.4 999175
25 сентября, сб
сб2500:00+7ссз2495100 0.1 1001127
03:00+5сз22942 0.1 100332
06:00+6сз2297100 0.0 100542
09:00+8зсз3695100 0.0 1008362
12:00+11зюз4682100 0.0 1009530
15:00+11зюз5989100 0.1 1009618
18:00+9юз51297100 0.9 1009506
21:00+11зюз61397100 1.1 1009633
26 сентября, вс
вс2600:00+12з51293100 0.3 1009472
03:00+11сз6129397 0.4 1011641
06:00+9ссз71183100 0.0 1014813
09:00+9сз612833 0.1 1015614
12:00+12сз7106830 0.0 10171232
15:00+12ссз7106640 0.1 10181462
18:00+11ссз6107296 0.1 1019631
21:00+10ссз61373100 0.1 1021512
27 сентября, пн
пн2700:00+10ссз5117891 0.1 1021529
03:00+6ссз49955 0.1 1023254
06:00+5ссз37978 0.0 1024161
09:00+8с468934 0.0 1024283
12:00+12ссв457255 0.0 1025878
15:00+12ссв4467100 0.1 10251095
18:00+11ссв477892 0.0 1026334
21:00+9с478149 0.0 1027161
28 сентября, вт
вт2800:00+7ссв35915 0.0 102775
03:00+6св33945 0.0 102839
06:00+6св33955 0.0 102954
09:00+8св35867 0.0 1030241
12:00+12всв346810 0.0 1030878
15:00+13всв336390 0.1 10301114
18:00+10всв2582100 0.2 1030156
21:00+9всв368588 0.2 1031161